Regional Weather Roundup
Issued by NWS

Home | Current Version | Previous Version | Graphics & Text | Print | Product List | Glossary On
Versions: 1 2 3 4 5 6 7 8 9 10 11 12 13 14 15 16 17 18 19 20 21 22 23 24 25 26 27 28 29 30 31 32 33 34 35 36 37 38 39 40 41 42 43 44 45 46 47 48 49 50
000
ASUS43 KMKX 292021
RWRWI

WISCONSIN REGIONAL WEATHER ROUNDUP
NATIONAL WEATHER SERVICE MILWAUKEE/SULLIVAN WI
300 PM CDT THU SEP 29 2016

NOTE: "FAIR" INDICATES FEW OR NO CLOUDS BELOW 12,000 FEET WITH NO
SIGNIFICANT WEATHER AND/OR OBSTRUCTIONS TO VISIBILITY.

WIZ001-002-006>008-014>016-023>028-292100-
NORTHWEST WISCONSIN

CITY           SKY/WX    TMP DP  RH WIND       PRES   REMARKS
SUPERIOR ARPT  CLOUDY    59  51  75 NE9       30.50S
ASHLAND        PTSUNNY   60  52  74 NE14      30.49F
HAYWARD        MOSUNNY   66  51  58 N7        30.45F
SIREN          MOSUNNY   64  49  58 CALM      30.45F
CUMBERLAND     SUNNY     64  46  52 NE3       30.43F
RICE LAKE      SUNNY     69  48  47 N5        30.44F
CHETEK         NOT AVBL
LADYSMITH      SUNNY     69  52  54 NE6       30.44F
EAU CLAIRE     SUNNY     68  51  54 E6        30.40F
MENOMONIE      SUNNY     73  49  42 NE7       30.41F
NEW RICHMOND   SUNNY     67  50  53 N5        30.43F
OSCEOLA        MOSUNNY   66  50  55 NE3       30.46F
$$

WIZ003>005-009-010-017-018-292100-
NORTH CENTRAL WISCONSIN

CITY           SKY/WX    TMP DP  RH WIND       PRES   REMARKS
MANITOWISH WTR NOT AVBL
ARBOR VITAE    SUNNY     64  54  69 N7        30.44F
WOODRUFF       SUNNY     64  54  69 N7        30.44F
RHINELANDER    SUNNY     68  54  60 NE8       30.43F
EAGLE RIVER    MOSUNNY   66  51  60 N8        30.43F
LAND O LAKES   MOSUNNY   62  53  72 N9        30.47F
PHILLIPS       SUNNY     65  52  62 N7        30.42F
TOMAHAWK       SUNNY     68  51  53 NE5       30.42F
MEDFORD        SUNNY     69  49  49 NE8       30.40S
MERRILL          N/A     70  51  51 E8        30.40F
$$

WIZ029-030-035-036-043>047-292100-
CENTRAL WISCONSIN

CITY           SKY/WX    TMP DP  RH WIND       PRES   REMARKS
WAUSAU         SUNNY     71  49  45 NE10      30.37F
MOSINEE        MOSUNNY   70  52  52 N8G17     30.39F
MARSHFIELD     SUNNY     71  50  47 NE9       30.37F
STEVENS POINT  SUNNY     70  47  44 NE6       30.36F
WAUPACA        MOSUNNY   73  49  43 NE13G24   30.35S
WAUTOMA        SUNNY     72  49  44 NE15G24   30.34S
WISC RAPIDS    MOSUNNY   74  52  46 NE9       30.37F
CAMP DOUGLAS   MOSUNNY   72  54  53 NE13G20   30.34F
$$

WIZ011>013-019>022-031-037>040-048>050-292100-
NORTHEAST WISCONSIN

CITY           SKY/WX    TMP DP  RH WIND       PRES   REMARKS
ANTIGO         SUNNY     69  51  53 NE13G20   30.40F
SHAWANO        PTSUNNY   73  53  50 NE10      30.36F
OCONTO         NOT AVBL
STURGEON BAY   SUNNY     68  52  56 NE21      30.35F
GREEN BAY      SUNNY     69  55  60 NE22G30   30.34F
MANITOWOC      PTSUNNY   66  58  75 NE14G21   30.32F
APPLETON       MOSUNNY   70  45  40 NE21G30   30.33S
CLINTONVILLE   SUNNY     72  50  46 E15       30.35F
OSHKOSH        SUNNY     69  55  60 NE18G29   30.32S
$$

WIZ032>034-041-042-053>061-292100-
SOUTHWEST WISCONSIN

CITY           SKY/WX    TMP DP  RH WIND       PRES   REMARKS
LA CROSSE      SUNNY     74  54  49 N10       30.35F
SPARTA         MOSUNNY   71  51  48 NE10      30.36F
VIROQUA        SUNNY     71  51  49 N10G16    30.35F
BOSCOBEL       SUNNY     75  50  41 N13G20    30.31F
PRAIRIE DU CHI SUNNY     73  45  36 N12G17    30.30F
PLATTEVILLE    SUNNY     73  50  44 NE16G28   30.28F
$$

WIZ056-057-062-063-064-067-068-292100-
SOUTH CENTRAL WISCONSIN

CITY           SKY/WX    TMP DP  RH WIND       PRES   REMARKS
REEDSBURG      NOT AVBL
BARABOO/DELLS  SUNNY     71  43  36 NE13G24   30.31F
LONE ROCK      SUNNY     74  46  36 NE16G24   30.30F
MINERAL POINT  SUNNY     72  45  37 NE16G26   30.29F
MADISON        MOSUNNY   71  52  50 NE20G30   30.28F
MIDDLETON      MOSUNNY   73  51  45 NE16G25   30.29S
WATERTOWN      SUNNY     70  54  57 NE15G24   30.27S
MONROE         PTSUNNY   70  52  52 N20G31    30.25F
JANESVILLE     CLOUDY    70  54  56 NE18G24   30.24R
$$

WIZ051-052-058>065-066-070>072-292100-
SOUTHEAST WISCONSIN

CITY           SKY/WX    TMP DP  RH WIND       PRES   REMARKS
MILWAUKEE      CLOUDY    64  58  80 N17G30    30.26S
WAUKESHA       CLOUDY    63  54  72 NE14G20   30.28F
MILWAUKEE/TIMM PTSUNNY   64  54  68 N17G29    30.27F
RACINE         CLOUDY    60  55  83 N17G25    30.26S
BURLINGTON     CLOUDY    63  53  71 NE15G25   30.25S
KENOSHA        LGT RAIN  63  55  75 NE16G26   30.24S
FOND DU LAC    SUNNY     70  57  63 NE20      30.31F
SHEBOYGAN      MOSUNNY   65  58  78 NE26G32   30.30F
WEST BEND      MOSUNNY   72  61  68 NE20G28   30.27F
JUNEAU         SUNNY     70  51  51 NE20G25   30.29S
$$

LSZ147-162-292100-
LAKE SUPERIOR

STATION/POSITION TIME  TEMP    WIND        PRES    WAVE
                       AIR SEA DIR/SP/G            HT/PER
                 (UTC) (F)     (DEG/KT/KT) (MB)    (FT/S)
W MID LAKE BUOY  1950   56 55   30/  4/  6 1032.9F   1/ 5
DEVILS ISLAND    2000   54      50/  9/ 10 1033.5F
SAXON HARBOR     1940   57      20/ 12/ 14 1032.2S
$$

LMZ867-665-643>646-292100-
LAKE MICHIGAN

STATION/POSITION TIME  TEMP    WIND        PRES    WAVE
                       AIR SEA DIR/SP/G            HT/PER
                 (UTC) (F)     (DEG/KT/KT) (MB)    (FT/S)
CHAMBERS ISLAND  1900   64      30/ 11/ 14 1028.1F
S GREEN BAY BUOY 2000   64 63   40/ 17/ 21 1027.1F
N MID LAKE BUOY  1950   63 66   40/ 16/ 19 1027.4F   3/ 5
NORTHPORT PIER   1900   66      50/ 11/ 16 1028.1F
SISTER BAY       1908   75      10/ 10/ 17   N/A
KEWAUNEE LAKESHO 1900   63      20/  7/ 11 1027.0S
SHEBOYGAN LAKESH 2000   61      10/ 24/ 26 1025.4F
PORT WASHINGTON  1920   67      30/ 21     1025.4F
ATWATER BUOY     2000   57 52   20/ 16/ 21 1024.3S
MILWAUKEE LAKESH 1910   61     360/ 21/ 24   N/A
S MID LAKE BUOY  1950   64 69   60/ 23/ 27 1022.2F   7/ 8
KENOSHA   LAKESH 2000   60      10/ 24/ 27 1023.0F
$$

TC  - TEMPERATURE IN CELSIUS
VSB - VISIBILITY IN STATUTE MILES
WCI - WIND CHILL INDEX
HX  - HEAT INDEX





USA.gov is the U.S. government's official web portal to all federal, state and local government web resources and services.